Location: Elstree
(51.6403°N, 0.2969°W)
Time: 16:00:22
(UTC+00:00)

SJ 16-02 - Pass Details

Date: 25 June 2021
Orbit: 606 x 616 km, 75.0° (Epoch: 24 July)

Event Time Altitude Azimuth Distance (km) Brightness Sun altitude
Rises 21:05:00 0° 345° (NNW) 2,878 6.2 -5.4°
Reaches altitude 10° 21:07:54 10° 4° (N) 1,969 4.7 -5.7°
Maximum altitude 21:10:55 18° 48° (NE) 1,511 3.4 -6.0°
Drops below altitude 10° 21:13:57 10° 92° (E) 1,961 3.6 -6.3°
Enters shadow 21:15:56 - 107° (ESE) 2,565 4.0 -6.4°
